Briefing drone pour Veauche

Rechercher une autre localisation

Conditions de vol :


Nous sommes le : Dimanche 25 février 2024
Il est 08:17 UTC (09:17 LT)

Lever de soleil : 06:02 UTC (07:02 LT)
Coucher de soleil : 17:49 UTC (18:49 LT)

Météo

L'essentiel des conditions de vol

VIGILANCE MÉTÉO FRANCE - Loire (42)
Pas de vigilances particulieres
CARTES DES FRONTS
METAR de LFMH
LFMH 250800Z AUTO 18012KT CAVOK 07/00 Q1005

Date d'émission: 25/02/2024
Heure d'émission: 08:00 UTC
Vent: 180° pour 12 KT (22 km/h)
Visibilité horizontale: > 10 km
Plafond : Plafond et visibilité OK (CAVOK)
Température: 7 °C
Point de rosée: 0 °C
Humidité: 61%
Pression (QNH): 1005 hPa
TAF de LFMH
LFMH 161901Z 1619/1712 CNL

Conditions prévues :

Heure d'émission : Bulletin éffectué le 16 à 19:00 UTC
Prévision : Valide du 16 a 19:00 UTC au 17 a 12:00 UTC
Nuages : à 0ft (0 m)
WEBCAM POUR VEAUCHE

Réglementation

Voler en sécurité

CARTES AERONAUTIQUE 1/500.000
CARTE AZBA (Reseau basse altitude)
CARTES VAC (LFMH)
SUP AIP




Chargement des AIP...
NOTAM (VEAUCHE + Terrain à proximité / FIR )




Chargement des NOTAMS...
CONTACT PREFECTURE 42
Loire (42) : [email protected]


Avertissement : Les données mises à disposition sont indicatives. Oxygène Drone ne pourra être tenu responsable de dégâts causés aux biens et aux personnes.